| time (UTC) | temp C | wind direction | speed KPH | gust KPH | rain 1hr cm | rain 24hr cm | rain mn cm | humidity % | barometer mb |
| 20260504201632 | 24 | 149 | 3.2 | 19.3 | 0.00 | 0.00 | 0.00 | 35 | 1010.7 |
| 20260504201121 | 24 | 154 | 4.8 | 17.7 | 0.00 | 0.00 | 0.00 | 34 | 1010.7 |
| 20260504200630 | 25 | 249 | 3.2 | 17.7 | 0.00 | 0.00 | 0.00 | 33 | 1010.7 |
| 20260504200118 | 25 | 342 | 4.8 | 19.3 | 0.00 | 0.00 | 0.00 | 33 | 1010.7 |
| 20260504195628 | 24 | 305 | 4.8 | 19.3 | 0.00 | 0.00 | 0.00 | 34 | 1010.7 |
| 20260504195135 | 24 | 255 | 3.2 | 19.3 | 0.00 | 0.00 | 0.00 | 34 | 1011.0 |
| 20260504194644 | 24 | 308 | 9.7 | 20.9 | 0.00 | 0.00 | 0.00 | 33 | 1011.0 |
| 20260504194132 | 24 | 305 | 6.4 | 20.9 | 0.00 | 0.00 | 0.00 | 36 | 1011.1 |
| 20260504193621 | 24 | 218 | 8.0 | 17.7 | 0.00 | 0.00 | 0.00 | 34 | 1011.3 |
| 20260504193147 | 24 | 222 | 11.3 | 24.1 | 0.00 | 0.00 | 0.00 | 33 | 1011.5 |
| 20260504192614 | 24 | 286 | 8.0 | 25.7 | 0.00 | 0.00 | 0.00 | 34 | 1011.5 |
| 20260504192122 | 23 | 229 | 9.7 | 25.7 | 0.00 | 0.00 | 0.00 | 36 | 1011.6 |
| 20260504191651 | 23 | 320 | 4.8 | 14.5 | 0.00 | 0.00 | 0.00 | 36 | 1011.6 |
| 20260504191118 | 23 | 202 | 4.8 | 16.1 | 0.00 | 0.00 | 0.00 | 35 | 1011.8 |
| 20260504190627 | 23 | 81 | 1.6 | 16.1 | 0.00 | 0.00 | 0.00 | 37 | 1011.8 |
| 20260504190115 | 24 | 278 | 6.4 | 20.9 | 0.00 | 0.00 | 0.00 | 37 | 1012.0 |
| 20260504185644 | 23 | 226 | 6.4 | 20.9 | 0.00 | 0.00 | 0.00 | 36 | 1012.0 |
| 20260504185131 | 23 | 241 | 8.0 | 20.9 | 0.00 | 0.00 | 0.00 | 36 | 1012.0 |
| 20260504184621 | 23 | 51 | 9.7 | 17.7 | 0.00 | 0.00 | 0.00 | 36 | 1012.2 |
| 20260504184149 | 23 | 263 | 4.8 | 12.9 | 0.00 | 0.00 | 0.00 | 35 | 1012.1 |
| 20260504183637 | 23 | 284 | 4.8 | 19.3 | 0.00 | 0.00 | 0.00 | 36 | 1012.3 |
| 20260504183124 | 23 | 312 | 6.4 | 19.3 | 0.00 | 0.00 | 0.00 | 35 | 1012.4 |
| 20260504182649 | 23 | 232 | 6.4 | 19.3 | 0.00 | 0.00 | 0.00 | 36 | 1012.4 |
| 20260504182137 | 23 | 288 | 4.8 | 27.4 | 0.00 | 0.00 | 0.00 | 35 | 1012.4 |
| 20260504181624 | 23 | 21 | 8.0 | 27.4 | 0.00 | 0.00 | 0.00 | 34 | 1012.4 |
| 20260504181114 | 23 | 307 | 11.3 | 20.9 | 0.00 | 0.00 | 0.00 | 34 | 1012.5 |
| 20260504180622 | 23 | 191 | 8.0 | 17.7 | 0.00 | 0.00 | 0.00 | 33 | 1012.5 |
| 20260504180132 | 23 | 204 | 4.8 | 14.5 | 0.00 | 0.00 | 0.00 | 36 | 1012.6 |
| 20260504175619 | 23 | 293 | 3.2 | 17.7 | 0.00 | 0.00 | 0.00 | 36 | 1012.7 |
| 20260504175129 | 23 | 278 | 4.8 | 17.7 | 0.00 | 0.00 | 0.00 | 35 | 1012.7 |
| 20260504174618 | 22 | 317 | 4.8 | 12.9 | 0.00 | 0.00 | 0.00 | 34 | 1012.6 |
| 20260504174126 | 23 | 201 | 1.6 | 14.5 | 0.00 | 0.00 | 0.00 | 34 | 1012.6 |
| 20260504173615 | 23 | 293 | 4.8 | 14.5 | 0.00 | 0.00 | 0.00 | 35 | 1012.9 |
| 20260504173124 | 22 | 269 | 3.2 | 25.7 | 0.00 | 0.00 | 0.00 | 35 | 1012.8 |
| 20260504172632 | 22 | 269 | 11.3 | 25.7 | 0.00 | 0.00 | 0.00 | 36 | 1012.9 |
| 20260504172120 | 22 | 295 | 8.0 | 19.3 | 0.00 | 0.00 | 0.00 | 35 | 1012.9 |
| 20260504171648 | 23 | 284 | 6.4 | 17.7 | 0.00 | 0.00 | 0.00 | 31 | 1013.0 |
| 20260504171116 | 22 | 282 | 8.0 | 19.3 | 0.00 | 0.00 | 0.00 | 37 | 1013.0 |
| 20260504170626 | 22 | 181 | 6.4 | 16.1 | 0.00 | 0.00 | 0.00 | 34 | 1013.1 |
| 20260504170150 | 22 | 325 | 3.2 | 17.7 | 0.00 | 0.00 | 0.00 | 36 | 1013.1 |
| 20260504160153 | 22 | 293 | 8.0 | 17.7 | 0.00 | 0.00 | 0.00 | 33 | 1014.0 |
| 20260504151115 | 20 | 165 | 3.2 | 20.9 | 0.00 | 0.00 | 0.00 | 39 | 1014.5 |
| 20260504150623 | 20 | 46 | 6.4 | 20.9 | 0.00 | 0.00 | 0.00 | 35 | 1014.6 |
| 20260504150132 | 20 | 261 | 4.8 | 16.1 | 0.00 | 0.00 | 0.00 | 36 | 1014.7 |
| 20260504141130 | 18 | 325 | 1.6 | 14.5 | 0.00 | 0.00 | 0.00 | 40 | 1014.7 |
| 20260504140619 | 18 | 241 | 1.6 | 11.3 | 0.00 | 0.00 | 0.00 | 42 | 1014.9 |
| 20260504140147 | 18 | 230 | 4.8 | 11.3 | 0.00 | 0.00 | 0.00 | 44 | 1014.9 |
| 20260504130615 | 16 | 217 | 1.6 | 8.0 | 0.00 | 0.00 | 0.00 | 50 | 1015.2 |
| 20260504130124 | 15 | 293 | 1.6 | 8.0 | 0.00 | 0.00 | 0.00 | 49 | 1015.2 |
| 20260504120125 | 10 | 276 | 0.0 | 6.4 | 0.00 | 0.00 | 0.00 | 68 | 1015.5 |
| 20260504110618 | 8 | 304 | 0.0 | 3.2 | 0.00 | 0.00 | 0.00 | 73 | 1015.6 |
| 20260504110127 | 7 | 304 | 0.0 | 3.2 | 0.00 | 0.00 | 0.00 | 73 | 1015.6 |
| 20260504100127 | 8 | 303 | 0.0 | 0.0 | 0.00 | 0.00 | 0.00 | 73 | 1015.5 |
| 20260504090131 | 7 | 212 | 0.0 | 0.0 | 0.00 | 0.00 | 0.00 | 77 | 1015.9 |
| 20260504081626 | 7 | 320 | 0.0 | 0.0 | 0.00 | 0.00 | 0.00 | 76 | 1016.1 |
| 20260504081114 | 7 | 320 | 0.0 | 0.0 | 0.00 | 0.00 | 0.00 | 76 | 1016.1 |
| 20260504080624 | 7 | 320 | 0.0 | 0.0 | 0.00 | 0.00 | 0.00 | 74 | 1016.0 |
| 20260504080133 | 7 | 253 | 0.0 | 0.0 | 0.00 | 0.00 | 0.00 | 74 | 1016.1 |
| 20260504070116 | 6 | 253 | 0.0 | 0.0 | 0.00 | 0.00 | 0.00 | 74 | 1016.1 |
| 20260504060122 | 6 | 253 | 0.0 | 0.0 | 0.00 | 0.00 | 0.00 | 74 | 1016.4 |
| 20260504050629 | 6 | 321 | 0.0 | 0.0 | 0.00 | 0.00 | 0.00 | 75 | 1016.3 |
| 20260504050117 | 6 | 321 | 0.0 | 0.0 | 0.00 | 0.00 | 0.00 | 75 | 1016.3 |
| 20260504045626 | 6 | 321 | 0.0 | 0.0 | 0.00 | 0.00 | 0.00 | 74 | 1016.3 |
| 20260504045116 | 6 | 321 | 0.0 | 0.0 | 0.00 | 0.00 | 0.00 | 74 | 1016.3 |
| 20260504044624 | 6 | 321 | 0.0 | 0.0 | 0.00 | 0.00 | 0.00 | 74 | 1016.3 |
| 20260504044114 | 6 | 321 | 0.0 | 0.0 | 0.00 | 0.00 | 0.00 | 74 | 1016.4 |
| 20260504043623 | 6 | 321 | 0.0 | 0.0 | 0.00 | 0.00 | 0.00 | 74 | 1016.3 |
| 20260504043132 | 6 | 321 | 0.0 | 0.0 | 0.00 | 0.00 | 0.00 | 74 | 1016.3 |
| 20260504042618 | 6 | 321 | 0.0 | 0.0 | 0.00 | 0.00 | 0.00 | 74 | 1016.3 |
| 20260504042126 | 6 | 321 | 0.0 | 0.0 | 0.00 | 0.00 | 0.00 | 72 | 1016.4 |
| 20260504041615 | 6 | 321 | 0.0 | 0.0 | 0.00 | 0.00 | 0.00 | 70 | 1016.3 |
| 20260504041140 | 7 | 321 | 0.0 | 0.0 | 0.00 | 0.00 | 0.00 | 69 | 1016.4 |
| 20260504040629 | 7 | 322 | 0.0 | 0.0 | 0.00 | 0.00 | 0.00 | 69 | 1016.3 |
| 20260504040117 | 7 | 321 | 0.0 | 3.2 | 0.00 | 0.00 | 0.00 | 70 | 1016.3 |
| 20260504035622 | 6 | 321 | 1.6 | 3.2 | 0.00 | 0.00 | 0.00 | 72 | 1016.3 |
| 20260504035131 | 6 | 229 | 0.0 | 3.2 | 0.00 | 0.00 | 0.00 | 69 | 1016.2 |
| 20260504034620 | 6 | 240 | 0.0 | 0.0 | 0.00 | 0.00 | 0.00 | 72 | 1016.1 |
| 20260504034129 | 6 | 240 | 0.0 | 0.0 | 0.00 | 0.00 | 0.00 | 70 | 1016.2 |
| 20260504033617 | 7 | 238 | 0.0 | 0.0 | 0.00 | 0.00 | 0.00 | 67 | 1016.1 |
| 20260504033125 | 7 | 238 | 0.0 | 0.0 | 0.00 | 0.00 | 0.00 | 65 | 1016.1 |
| 20260504032654 | 7 | 311 | 0.0 | 0.0 | 0.00 | 0.00 | 0.00 | 66 | 1015.9 |
| 20260504032122 | 7 | 311 | 0.0 | 0.0 | 0.00 | 0.00 | 0.00 | 69 | 1015.8 |
| 20260504031631 | 7 | 311 | 0.0 | 0.0 | 0.00 | 0.00 | 0.00 | 70 | 1015.8 |
| 20260504031119 | 7 | 311 | 0.0 | 0.0 | 0.00 | 0.00 | 0.00 | 68 | 1015.8 |
| 20260504030627 | 7 | 311 | 0.0 | 0.0 | 0.00 | 0.00 | 0.00 | 65 | 1015.8 |
| 20260504030117 | 8 | 311 | 0.0 | 0.0 | 0.00 | 0.00 | 0.00 | 64 | 1015.8 |
| 20260504025625 | 8 | 311 | 0.0 | 0.0 | 0.00 | 0.00 | 0.00 | 66 | 1015.7 |
| 20260504025114 | 7 | 311 | 0.0 | 0.0 | 0.00 | 0.00 | 0.00 | 69 | 1015.8 |
| 20260504024623 | 7 | 311 | 0.0 | 0.0 | 0.00 | 0.00 | 0.00 | 66 | 1015.7 |
| 20260504024148 | 7 | 311 | 0.0 | 0.0 | 0.00 | 0.00 | 0.00 | 66 | 1015.8 |
| 20260504023616 | 7 | 311 | 0.0 | 0.0 | 0.00 | 0.00 | 0.00 | 64 | 1015.8 |
| 20260504023125 | 7 | 311 | 0.0 | 0.0 | 0.00 | 0.00 | 0.00 | 63 | 1015.8 |
| 20260504022635 | 8 | 311 | 0.0 | 0.0 | 0.00 | 0.00 | 0.00 | 61 | 1015.8 |
| 20260504022123 | 8 | 311 | 0.0 | 0.0 | 0.00 | 0.00 | 0.00 | 61 | 1015.9 |
| 20260504021631 | 9 | 311 | 0.0 | 0.0 | 0.00 | 0.00 | 0.00 | 59 | 1015.8 |
| 20260504021119 | 8 | 311 | 0.0 | 0.0 | 0.00 | 0.00 | 0.00 | 61 | 1015.7 |
| 20260504020627 | 8 | 311 | 0.0 | 0.0 | 0.00 | 0.00 | 0.00 | 60 | 1015.6 |
| 20260504020117 | 8 | 311 | 0.0 | 0.0 | 0.00 | 0.00 | 0.00 | 60 | 1015.7 |
| 20260504015625 | 9 | 311 | 0.0 | 0.0 | 0.00 | 0.00 | 0.00 | 58 | 1015.6 |
| 20260504015115 | 9 | 311 | 0.0 | 0.0 | 0.00 | 0.00 | 0.00 | 57 | 1015.6 |
| 20260504014619 | 9 | 311 | 0.0 | 0.0 | 0.00 | 0.00 | 0.00 | 59 | 1015.6 |
| 20260504014128 | 9 | 311 | 0.0 | 0.0 | 0.00 | 0.00 | 0.00 | 60 | 1015.6 |
| 20260504013637 | 9 | 311 | 0.0 | 0.0 | 0.00 | 0.00 | 0.00 | 59 | 1015.6 |
| 20260504013125 | 9 | 311 | 0.0 | 0.0 | 0.00 | 0.00 | 0.00 | 55 | 1015.6 |
| 20260504012613 | 10 | 311 | 0.0 | 0.0 | 0.00 | 0.00 | 0.00 | 57 | 1015.6 |
| 20260504012117 | 10 | 311 | 0.0 | 0.0 | 0.00 | 0.00 | 0.00 | 54 | 1015.6 |
| 20260504011626 | 10 | 311 | 0.0 | 0.0 | 0.00 | 0.00 | 0.00 | 54 | 1015.6 |
| 20260504011115 | 10 | 311 | 0.0 | 0.0 | 0.00 | 0.00 | 0.00 | 54 | 1015.6 |
| 20260504010644 | 10 | 311 | 0.0 | 0.0 | 0.00 | 0.00 | 0.00 | 51 | 1015.4 |
| 20260504010132 | 11 | 311 | 0.0 | 0.0 | 0.00 | 0.00 | 0.00 | 52 | 1015.3 |
| 20260504005622 | 11 | 311 | 0.0 | 0.0 | 0.00 | 0.00 | 0.00 | 51 | 1015.2 |
| 20260504005130 | 11 | 311 | 0.0 | 0.0 | 0.00 | 0.00 | 0.00 | 54 | 1015.3 |
| 20260504004619 | 11 | 311 | 0.0 | 0.0 | 0.00 | 0.00 | 0.00 | 50 | 1015.2 |
| 20260504004127 | 11 | 311 | 0.0 | 0.0 | 0.00 | 0.00 | 0.00 | 49 | 1015.1 |
| 20260504003617 | 11 | 311 | 0.0 | 0.0 | 0.00 | 0.00 | 0.00 | 47 | 1015.1 |
| 20260504003125 | 11 | 311 | 0.0 | 0.0 | 0.00 | 0.00 | 0.00 | 46 | 1015.1 |
| 20260504002614 | 12 | 311 | 0.0 | 0.0 | 0.00 | 0.00 | 0.00 | 48 | 1015.1 |
| 20260504002123 | 12 | 311 | 0.0 | 0.0 | 0.00 | 0.00 | 0.00 | 44 | 1015.0 |
| 20260504001633 | 12 | 311 | 0.0 | 0.0 | 0.00 | 0.00 | 0.00 | 47 | 1014.8 |
| 20260504001121 | 12 | 311 | 0.0 | 1.6 | 0.00 | 0.00 | 0.00 | 44 | 1014.9 |
| 20260504000630 | 13 | 311 | 0.0 | 1.6 | 0.00 | 0.00 | 0.00 | 41 | 1014.8 |
| 20260504000117 | 13 | 311 | 0.0 | 1.6 | 0.00 | 0.00 | 0.00 | 39 | 1014.8 |
| 20260503235626 | 13 | 307 | 0.0 | 1.6 | 0.00 | 0.00 | 0.00 | 40 | 1014.7 |
| 20260503235115 | 13 | 307 | 0.0 | 3.2 | 0.00 | 0.00 | 0.00 | 37 | 1014.7 |
| 20260503234625 | 14 | 312 | 1.6 | 4.8 | 0.00 | 0.00 | 0.00 | 37 | 1014.7 |
| 20260503234128 | 14 | 299 | 3.2 | 4.8 | 0.00 | 0.00 | 0.00 | 35 | 1014.7 |
| 20260503233618 | 15 | 312 | 0.0 | 4.8 | 0.00 | 0.00 | 0.00 | 34 | 1014.5 |
| 20260503233126 | 15 | 300 | 1.6 | 4.8 | 0.00 | 0.00 | 0.00 | 34 | 1014.5 |
| 20260503232615 | 15 | 295 | 0.0 | 8.0 | 0.00 | 0.00 | 0.00 | 33 | 1014.4 |
| 20260503232123 | 15 | 304 | 3.2 | 8.0 | 0.00 | 0.00 | 0.00 | 32 | 1014.4 |
| 20260503231632 | 15 | 309 | 1.6 | 6.4 | 0.00 | 0.00 | 0.00 | 32 | 1014.4 |
| 20260503231122 | 15 | 301 | 1.6 | 12.9 | 0.00 | 0.00 | 0.00 | 31 | 1014.4 |
| 20260503230630 | 15 | 11 | 1.6 | 12.9 | 0.00 | 0.00 | 0.00 | 32 | 1014.4 |
| 20260503230119 | 15 | 299 | 3.2 | 12.9 | 0.00 | 0.00 | 0.00 | 31 | 1014.3 |
| 20260503225629 | 16 | 15 | 1.6 | 11.3 | 0.00 | 0.00 | 0.00 | 33 | 1014.2 |
| 20260503225118 | 16 | 314 | 1.6 | 11.3 | 0.00 | 0.00 | 0.00 | 32 | 1014.4 |
| 20260503224627 | 16 | 288 | 3.2 | 6.4 | 0.00 | 0.00 | 0.00 | 32 | 1014.4 |
| 20260503224116 | 16 | 309 | 3.2 | 11.3 | 0.00 | 0.00 | 0.00 | 31 | 1014.4 |
| 20260503223624 | 16 | 340 | 4.8 | 11.3 | 0.00 | 0.00 | 0.00 | 32 | 1014.4 |
| 20260503223132 | 16 | 295 | 3.2 | 11.3 | 0.00 | 0.00 | 0.00 | 31 | 1014.4 |
| 20260503222620 | 16 | 300 | 4.8 | 11.3 | 0.00 | 0.00 | 0.00 | 30 | 1014.4 |
| 20260503222129 | 16 | 328 | 1.6 | 8.0 | 0.00 | 0.00 | 0.00 | 30 | 1014.4 |
| 20260503221619 | 16 | 34 | 3.2 | 14.5 | 0.00 | 0.00 | 0.00 | 30 | 1014.4 |
| 20260503221128 | 16 | 92 | 4.8 | 24.1 | 0.00 | 0.00 | 0.00 | 30 | 1014.4 |
| 20260503220617 | 16 | 331 | 8.0 | 24.1 | 0.00 | 0.00 | 0.00 | 30 | 1014.5 |
| 20260503220126 | 16 | 313 | 6.4 | 17.7 | 0.00 | 0.00 | 0.00 | 30 | 1014.4 |
| 20260503215636 | 16 | 293 | 4.8 | 17.7 | 0.00 | 0.00 | 0.00 | 31 | 1014.4 |
| 20260503215118 | 16 | 316 | 4.8 | 17.7 | 0.00 | 0.00 | 0.00 | 30 | 1014.5 |
| 20260503214627 | 16 | 20 | 6.4 | 19.3 | 0.00 | 0.00 | 0.00 | 29 | 1014.4 |
| 20260503214115 | 16 | 20 | 4.8 | 19.3 | 0.00 | 0.00 | 0.00 | 29 | 1014.5 |
| 20260503213644 | 16 | 281 | 11.3 | 19.3 | 0.00 | 0.00 | 0.00 | 29 | 1014.4 |
| 20260503213132 | 16 | 343 | 8.0 | 19.3 | 0.00 | 0.00 | 0.00 | 29 | 1014.5 |
| 20260503212621 | 16 | 287 | 4.8 | 19.3 | 0.00 | 0.00 | 0.00 | 30 | 1014.5 |
| 20260503212129 | 17 | 288 | 4.8 | 14.5 | 0.00 | 0.00 | 0.00 | 31 | 1014.4 |
| 20260503211619 | 16 | 353 | 4.8 | 14.5 | 0.00 | 0.00 | 0.00 | 31 | 1014.4 |
| 20260503211127 | 16 | 5 | 4.8 | 16.1 | 0.00 | 0.00 | 0.00 | 29 | 1014.3 |
| 20260503210635 | 16 | 9 | 1.6 | 19.3 | 0.00 | 0.00 | 0.00 | 32 | 1014.4 |
| 20260503210123 | 16 | 300 | 8.0 | 25.7 | 0.00 | 0.00 | 0.00 | 29 | 1014.4 |
| 20260503205632 | 16 | 308 | 11.3 | 25.7 | 0.00 | 0.00 | 0.00 | 29 | 1014.4 |
| 20260503205120 | 16 | 71 | 3.2 | 17.7 | 0.00 | 0.00 | 0.00 | 30 | 1014.5 |
| 20260503204630 | 16 | 308 | 6.4 | 20.9 | 0.00 | 0.00 | 0.00 | 29 | 1014.5 |
| 20260503204118 | 16 | 290 | 9.7 | 20.9 | 0.00 | 0.00 | 0.00 | 31 | 1014.4 |
| 20260503203628 | 16 | 300 | 8.0 | 19.3 | 0.00 | 0.00 | 0.00 | 33 | 1014.5 |
| 20260503203116 | 16 | 325 | 4.8 | 16.1 | 0.00 | 0.00 | 0.00 | 34 | 1014.7 |
| 20260503202624 | 16 | 344 | 3.2 | 16.1 | 0.00 | 0.00 | 0.00 | 33 | 1014.8 |
| 20260503202149 | 16 | 12 | 6.4 | 16.1 | 0.00 | 0.00 | 0.00 | 31 | 1014.9 |